PDT,Max TemperatureF,Mean TemperatureF,Min TemperatureF,Max Dew PointF,MeanDew PointF,Min DewpointF,Max Humidity, Mean Humidity, Min Humidity, Max Sea Level PressureIn, Mean Sea Level PressureIn, Min Sea Level PressureIn, Max VisibilityMiles, Mean VisibilityMiles, Min VisibilityMiles, Max Wind SpeedMPH, Mean Wind SpeedMPH, Max Gust SpeedMPH,PrecipitationIn, CloudCover, Events, WindDirDegrees
2013-3-1,78,60,43,44,40,34,82,56,13,30.45,30.34,30.23,10,10,10,9,6,,0.00,0,,351
2013-3-2,68,56,44,49,43,39,82,61,32,30.28,30.16,30.07,10,10,10,9,4,,0.00,0,,330
2013-3-3,69,58,46,48,45,39,89,64,23,30.07,30.03,29.99,10,10,8,10,3,,0.00,3,Rain,208
2013-3-4,68,56,44,49,44,41,93,71,34,30.12,30.05,29.97,10,10,10,10,4,,0.00,4,,263
2013-3-5,63,53,43,46,39,29,86,62,24,29.99,29.87,29.70,10,10,6,33,14,41,0.20,3,Rain,182
2013-3-6,59,52,43,44,38,34,87,64,32,30.00,29.88,29.68,10,10,10,34,23,47,0.00,4,Rain,156
2013-3-7,60,47,34,38,33,28,89,63,21,30.01,29.95,29.90,10,10,10,10,5,,0.00,0,,318
2013-3-8,68,52,35,32,29,22,79,44,9,30.04,29.88,29.81,10,10,10,16,9,21,0.00,0,,344
2013-3-9,70,53,36,32,28,20,65,36,9,30.33,30.24,30.06,10,10,10,20,8,28,0.00,0,,342
2013-3-10,77,56,36,42,30,20,82,43,5,30.37,30.29,30.21,10,10,10,12,7,,0.00,0,,348
2013-3-11,79,59,39,46,40,36,82,56,15,30.27,30.18,30.06,10,10,10,8,4,,0.00,0,,261
2013-3-12,75,58,42,51,43,39,86,61,24,30.17,30.12,30.05,10,10,10,7,4,,0.00,0,,284
2013-3-13,79,62,44,47,45,42,86,60,18,30.19,30.13,30.07,10,10,10,7,4,,0.00,0,,322
2013-3-14,75,62,48,54,47,43,83,63,29,30.15,30.11,30.09,10,10,10,8,5,,0.00,0,,320
2013-3-15,80,66,52,46,40,33,83,45,10,30.12,30.07,30.00,10,10,10,13,7,21,0.00,0,,349
2013-3-16,78,63,48,41,35,25,69,39,9,30.08,30.03,29.97,10,10,10,20,9,30,0.00,0,,334
2013-3-17,72,58,44,36,29,17,68,36,5,30.14,30.08,30.01,10,10,10,13,8,20,0.00,0,,344
2013-3-18,71,56,41,42,33,25,71,43,9,30.11,30.05,30.00,10,10,10,12,5,,0.00,1,,357
2013-3-19,66,57,48,53,46,40,87,67,36,30.09,30.06,30.01,10,10,6,22,7,29,0.04,6,Rain,194
2013-3-20,62,57,52,52,49,35,90,79,39,30.09,30.02,29.97,10,10,6,29,18,37,0.08,7,Rain,160
2013-3-21,66,52,37,33,26,14,73,37,9,30.17,30.11,30.04,10,10,10,20,12,26,0.00,0,,344
2013-3-22,64,54,45,22,19,14,39,26,8,30.19,30.14,30.09,10,10,10,22,13,32,0.00,0,,348
2013-3-23,73,59,45,34,21,11,61,27,4,30.18,30.10,30.00,10,10,6,21,11,29,0.00,0,,350
2013-3-24,73,56,39,40,33,25,76,45,9,30.09,30.02,29.93,10,10,10,9,5,,0.00,0,,322
2013-3-25,70,56,41,47,41,35,80,56,26,29.99,29.93,29.86,10,10,10,13,6,,0.00,2,Rain,286
2013-3-26,70,54,39,49,42,38,89,59,22,29.99,29.94,29.90,10,10,10,8,2,,0.00,4,,187
2013-3-27,72,61,50,48,46,45,80,59,27,29.96,29.92,29.88,10,10,10,21,7,23,0.00,4,,171
2013-3-28,68,60,51,51,46,42,86,64,29,30.12,30.06,29.98,10,10,10,15,6,20,0.00,6,,197
2013-3-29,79,62,45,48,43,36,93,57,13,30.14,30.08,30.01,10,10,10,13,6,,0.00,0,,333
2013-3-30,77,62,48,56,46,41,83,53,23,30.05,29.99,29.94,10,10,10,14,7,,0.01,2,Rain,17
2013-3-31,66,60,53,56,52,45,94,81,48,30.09,30.04,29.99,10,9,3,17,6,22,0.28,7,Rain-Thunderstorm,168